Temperature
17 16 16 16 16 16 16 16 16 16 16 16 16 16 16 16 16 16 16 16 16 16 16 16 15 15 15 15 15 15 15 15 15 15 15 15 15 15 15 15 15 15 15
18 16 16 16 16 16 16 16 16 16 16 16 16 16 16 16 16 16 16 16 16 16 15 15 15 15 15 15 15 15 15 15 15 15 15 15 15 14 14 14 14 14 14
17 16 16 16 16 16 16 16 16 16 16 16 16 16 16 16 16 16 16 15 15 15 15 15 15 15 15 15 15 15 15 15 15 15 15 15 14 14 14 14 14 14 14
17 16 16 16 16 16 16 16 16 16 16 16 16 16 16 16 15 15 15 15 15 15 15 15 15 15 15 15 15 15 15 15 15 15 15 15 14 14 14 14 14 14 14
16 16 16 16 16 16 16 16 16 16 16 16 16 16 16 15 15 15 15 15 15 15 15 15 15 15 15 15 15 15 15 15 15 15 15 14 14 14 14 14 14 14 14
16 16 16 16 15 15 16 16 16 16 16 16 15 15 15 15 15 15 15 15 15 15 15 15 15 15 15 15 14 14 14 14 14 14 14 14 14 14 14 14 14 14 14
16 15 15 15 15 15 15 15 15 15 15 15 15 15 15 15 15 15 15 15 15 14 14 14 14 14 14 14 14 14 14 14 14 14 14 14 14 14 14 14 14 14 14
15 15 15 15 15 15 15 15 15 15 15 15 15 15 15 15 14 14 15 14 14 14 14 14 14 14 14 14 14 14 14 14 14 14 14 14 13 13 13 13 13 13 13
15 15 15 14 14 15 15 15 15 15 15 15 15 15 14 14 14 14 14 14 14 14 14 14 14 14 14 14 14 14 14 13 13 14 13 13 13 13 13 13 13 13 13
14 14 14 14 14 14 14 14 14 14 14 14 14 14 14 14 14 14 14 14 14 14 14 14 14 14 14 14 13 14 13 13 13 13 13 13 13 13 13 13 13 13 13
13 13 13 13 14 14 14 14 14 14 14 14 14 14 14 14 14 14 14 14 14 14 14 14 14 13 13 13 13 13 13 13 13 13 13 13 13 13 13 13 13 13 13
13 13 13 13 13 13 13 14 13 14 14 14 14 14 14 14 14 13 13 13 13 13 13 13 13 13 13 13 13 13 13 13 13 13 13 13 13 13 13 13 13 13 13
13 13 13 13 13 13 13 13 13 13 13 13 13 13 13 13 13 13 13 13 13 13 13 13 13 13 13 13 13 13 13 13 13 13 13 13 13 13 13 13 12 12 12
13 13 13 13 13 13 13 13 13 13 13 13 13 13 13 13 13 13 13 13 13 13 13 13 13 13 13 13 13 13 12 13 13 12 12 12 12 12 12 12 12 12 12
13 13 13 13 13 13 13 13 13 13 13 13 13 13 13 13 12 12 12 12 12 12 12 12 12 12 12 12 12 12 12 12 12 12 12 12 12 12 12 12 12 12 11
12 12 12 12 12 12 12 12 13 13 12 12 12 12 12 12 12 12 12 12 12 12 12 12 12 12 12 12 12 12 12 12 12 12 12 11 11 11 11 11 11 11 11
12 12 12 12 12 12 12 12 12 12 12 12 12 12 12 12 12 12 12 12 12 12 12 12 12 11 11 11 11 11 11 11 11 11 11 11 11 11 11 11 11 11 11
12 12 12 12 12 12 12 12 12 12 12 12 12 12 12 12 12 11 11 11 11 11 11 11 11 11 11 11 11 11 11 11 11 11 11 11 11 11 11 11 10 11 11
12 12 12 12 12 12 12 12 12 11 11 12 12 11 11 11 11 11 11 11 11 11 11 11 11 11 11 10 10 10 10 10 10 10 10 10 10 10 10 10 10 10 10
11 11 11 11 11 11 11 11 11 11 11 11 11 11 11 11 11 11 11 11 11 11 11 10 10 10 10 10 10 10 10 10 10 10 10 10 10 10 10 10 10 10 10
11 11 11 11 11 11 11 11 11 11 11 11 11 11 11 11 11 11 11 10 10 10 10 10 10 10 10 10 10 9 9 9 10 10 10 10 10 10 10 10 10 10 10
11 11 11 11 11 11 11 11 11 11 11 11 11 11 11 11 10 10 10 10 10 10 10 10 10 10 9 9 9 9 9 9 9 9 9 9 10 10 10 10 10 10 9
10 10 10 11 11 11 11 11 11 10 10 10 10 10 10 10 10 10 10 10 10 10 10 10 10 10 9 9 9 9 9 9 9 9 9 9 9 9 9 9 9 9 9
9 10 10 10 10 10 10 10 10 10 10 10 10 10 10 10 10 10 10 10 10 9 9 9 9 9 9 9 9 9 9 9 9 8 9 9 9 9 9 9 9 9 9
8 9 9 10 10 10 10 10 10 10 10 10 10 10 10 10 10 10 10 10 9 9 9 9 9 9 9 9 9 9 8 9 9 9 8 8 8 9 9 9 9 8 8
8 8 9 9 9 10 10 10 10 10 10 10 10 10 10 9 9 9 9 9 9 9 9 9 9 8 8 8 8 8 8 8 8 8 8 8 8 8 8 8 8 8 8
Wind_Speed
7 10 16 16 16 15 15 15 15 15 15 16 16 15 15 15 15 15 14 14 14 14 15 16 17 17 17 18 18 18 18 18 18 18 18 19 19 19 19 19 18 18 19
10 14 18 17 16 16 15 15 15 15 15 15 15 15 15 14 14 14 14 14 14 14 15 16 16 17 17 17 17 18 18 18 18 18 18 18 18 18 18 18 18 17 19
12 15 18 18 17 16 15 15 15 15 15 14 15 15 14 14 14 14 13 13 14 14 15 16 16 16 16 16 17 17 17 17 17 17 16 15 16 17 18 18 18 18 18
13 15 17 18 17 16 16 15 15 15 14 14 14 14 14 14 13 13 12 13 13 14 14 15 16 15 15 16 16 16 16 16 16 15 14 13 14 16 17 17 17 18 18
11 14 17 19 18 17 16 15 15 15 14 14 14 13 13 13 13 13 12 12 13 14 14 14 14 14 15 15 15 15 15 15 15 14 13 13 13 15 16 16 17 17 17
10 13 17 19 18 16 15 15 15 14 14 14 13 13 13 13 13 13 13 13 13 13 13 13 13 14 14 14 15 15 15 15 14 13 12 12 12 15 15 15 16 16 16
10 11 16 18 18 17 16 15 15 14 14 14 13 12 13 13 13 13 13 13 13 12 13 13 13 13 14 14 14 14 14 14 14 12 11 11 12 14 14 14 15 15 15
9 10 13 17 17 16 16 15 14 14 14 13 13 12 13 13 13 13 13 13 12 12 12 12 12 13 13 13 14 14 14 14 13 11 10 10 12 13 14 14 14 14 14
8 9 10 12 14 15 15 14 14 14 13 12 12 12 12 13 13 13 12 12 12 12 12 12 12 13 13 13 13 13 13 13 12 10 9 9 11 12 13 13 13 13 13
6 7 7 9 11 12 12 13 13 13 13 12 11 12 12 13 12 12 12 11 11 11 11 12 12 13 13 13 13 13 13 12 12 10 9 9 10 11 12 12 12 12 12
7 5 6 7 8 10 11 12 12 12 12 12 11 12 11 11 11 11 11 11 11 11 11 11 11 12 13 12 12 13 12 10 10 9 8 10 10 11 11 11 11 12 11
10 7 6 7 8 8 9 10 10 10 10 10 10 11 11 11 10 10 10 11 11 11 11 11 11 11 11 10 10 11 10 10 9 8 8 10 10 10 11 11 11 10 11
10 8 7 6 8 8 7 8 7 8 8 9 10 11 11 10 9 9 9 9 10 11 10 10 10 9 10 9 9 9 9 9 8 7 8 9 9 10 10 10 10 10 10
9 8 7 6 7 8 8 7 7 6 7 7 9 11 10 7 7 7 7 7 8 8 9 8 8 9 9 9 9 9 9 8 8 7 8 9 9 9 9 9 9 9 9
9 8 8 7 7 7 7 6 6 6 6 7 8 9 10 7 6 6 6 7 7 8 8 8 8 8 8 8 8 8 7 7 8 8 7 8 8 8 8 8 8 9 8
9 8 7 8 7 7 6 6 6 7 7 8 7 8 10 9 7 6 6 6 6 7 8 8 8 7 6 7 6 7 7 7 7 7 7 7 7 7 6 6 7 7 7
9 8 8 8 7 7 7 7 7 7 8 7 7 9 10 10 9 7 6 5 6 8 9 8 8 7 6 5 5 5 6 6 6 7 7 6 6 6 5 5 5 6 6
8 8 8 7 7 7 6 6 6 7 7 7 8 9 9 10 10 8 6 5 7 8 8 6 5 4 4 4 3 3 4 5 5 6 6 6 6 5 5 5 4 4 4
9 8 8 7 8 7 6 6 6 7 7 7 8 8 9 10 11 9 6 6 8 7 6 5 4 4 4 4 3 3 3 3 4 5 5 6 5 5 5 5 5 4 4
7 8 8 7 7 7 5 5 4 4 4 6 6 7 9 9 10 9 7 7 8 6 5 5 5 4 4 4 4 4 3 3 3 4 3 4 5 5 4 4 4 4 4
6 7 8 8 7 6 5 5 6 5 4 4 5 7 9 9 10 9 6 7 7 6 6 6 5 5 3 3 3 3 3 3 3 2 2 3 3 4 4 4 4 4 3
6 7 8 8 8 8 6 5 4 5 4 4 4 6 8 9 10 9 8 6 6 6 6 6 6 4 2 3 3 3 1 1 2 2 1 1 2 3 3 3 4 4 3
4 5 7 7 7 7 6 5 4 3 3 3 4 4 5 8 9 9 9 7 7 7 7 7 7 6 5 2 2 3 3 3 1 1 1 1 1 1 1 2 3 3 3
3 3 5 6 6 6 7 7 8 7 5 5 4 4 5 7 8 9 9 8 8 6 7 7 6 4 6 5 2 1 2 3 2 1 1 0 1 1 1 1 2 1 1
2 2 3 4 5 5 6 7 8 6 4 3 4 5 5 5 7 8 8 8 8 7 7 7 6 5 5 5 4 3 2 2 2 2 2 1 1 1 1 1 2 1 0
2 2 3 4 4 4 5 6 7 7 6 6 5 5 5 4 4 6 7 7 7 7 7 8 8 7 6 5 4 4 4 3 3 3 2 2 1 1 0 1 2 2 1
Wind_Direction
166 163 158 149 144 138 133 128 123 120 119 119 119 117 116 114 111 110 108 107 107 106 106 105 103 100 98 97 95 93 92 91 90 89 88 89 91 90 88 85 84 82 84
152 159 156 151 147 142 136 132 127 125 122 122 122 122 121 119 116 113 111 110 109 108 107 106 104 102 100 98 98 96 94 93 92 90 88 88 91 92 90 87 87 87 86
145 154 154 151 148 144 139 135 132 129 126 125 125 124 123 120 118 116 114 112 110 109 107 106 105 103 102 101 100 99 97 95 93 90 87 87 92 94 92 90 89 88 87
145 151 152 150 148 145 142 138 136 133 129 127 127 126 123 121 119 118 116 114 111 108 106 106 106 105 105 104 103 102 99 98 95 92 86 85 91 95 94 93 91 90 88
142 148 151 151 149 147 145 142 140 137 133 130 128 127 124 122 120 118 116 115 111 107 106 107 107 107 107 106 105 103 100 99 96 92 87 86 90 95 94 94 93 91 90
141 145 151 151 150 148 146 144 143 141 138 133 129 126 126 125 123 119 116 113 111 109 109 109 108 109 108 109 108 104 101 101 97 92 88 89 92 96 95 97 97 94 92
143 144 151 152 151 149 147 145 143 142 140 136 131 127 128 127 124 120 117 113 111 111 112 113 112 111 110 111 110 107 104 103 100 94 90 91 97 99 97 97 97 96 92
143 141 150 154 152 150 149 145 143 143 140 137 134 130 130 127 124 121 119 117 115 114 113 115 115 115 114 112 111 109 107 104 99 95 93 94 99 99 99 96 95 95 93
137 138 142 148 150 150 149 147 146 143 139 136 134 130 129 126 124 121 120 118 118 118 115 117 118 116 114 112 111 108 106 104 99 97 98 99 102 101 100 97 95 95 93
134 139 139 139 141 143 145 147 146 143 140 137 133 128 127 125 122 119 120 119 118 119 119 117 119 117 114 111 110 107 103 101 98 97 101 106 106 105 104 100 96 96 95
150 148 143 139 138 140 143 145 143 142 139 133 129 128 125 120 118 115 117 118 117 116 117 118 118 117 113 108 109 106 101 99 99 96 102 111 109 108 106 104 99 97 98
171 167 155 149 144 140 142 138 136 134 134 131 129 126 123 121 119 116 115 115 113 112 114 113 112 114 111 105 105 104 100 99 98 97 104 110 112 111 108 105 103 102 98
173 169 163 158 151 144 136 134 131 131 130 129 130 129 125 120 116 112 112 110 108 107 103 103 99 103 108 108 104 103 103 100 99 100 105 111 111 111 111 110 108 106 104
171 173 168 158 155 149 143 140 138 133 133 133 136 135 130 122 116 116 115 115 111 110 105 103 103 104 104 107 108 105 104 102 99 98 102 107 110 109 108 109 108 106 104
177 175 173 164 161 155 147 146 145 142 141 141 141 143 141 133 130 125 122 119 117 117 115 109 108 108 104 102 103 106 104 101 99 95 97 99 102 105 104 108 108 106 104
183 179 173 169 162 155 155 153 152 149 145 143 147 152 151 146 139 134 125 122 124 125 123 120 117 114 108 107 99 100 100 100 100 99 96 93 94 100 105 107 110 110 107
185 178 174 173 162 159 160 159 156 154 151 150 154 159 157 152 147 140 133 132 134 131 123 116 110 107 105 101 91 90 95 97 100 100 96 88 86 89 100 105 105 108 106
182 180 178 174 167 165 165 161 158 157 154 156 157 159 160 157 154 144 140 143 143 134 128 124 122 113 107 103 94 80 85 93 95 100 99 94 91 87 87 94 100 101 100
186 182 178 174 172 170 167 160 157 155 156 156 155 156 161 160 158 150 145 145 146 134 130 136 129 123 123 113 103 82 71 79 87 95 95 96 96 94 88 86 93 93 92
181 178 178 174 174 167 158 154 149 146 150 150 153 157 162 162 159 151 144 146 147 141 140 136 133 114 124 124 107 81 59 59 73 79 89 97 99 100 96 94 94 91 83
171 176 179 174 173 167 168 172 170 173 170 164 160 161 164 163 161 153 149 150 151 157 157 146 135 127 114 118 102 80 45 48 59 53 68 85 88 102 103 105 106 97 81
178 181 182 180 176 175 179 180 171 163 167 167 158 160 167 164 163 161 156 159 158 157 154 153 144 140 139 143 130 118 86 359 11 27 43 85 91 92 92 109 110 102 91
176 184 186 184 179 176 166 155 137 129 128 149 166 172 172 171 167 166 165 162 164 167 171 170 163 155 162 170 137 138 149 202 260 332 360 88 101 99 103 111 111 100 93
194 181 174 175 172 170 165 163 160 168 176 182 176 177 171 174 173 171 168 167 169 171 174 179 175 168 163 171 165 120 139 148 155 213 313 310 110 136 136 130 117 97 80
159 158 163 157 157 161 169 170 168 169 171 158 158 164 175 178 177 174 172 171 174 176 178 179 176 175 175 175 169 154 127 98 120 151 223 267 301 237 182 175 154 145 96
106 122 134 140 146 155 161 168 173 170 163 158 165 175 181 183 183 178 177 178 180 180 182 185 184 183 187 181 175 168 163 162 170 160 182 214 238 274 254 195 192 192 189
Height
1508 1511 1514 1517 1519 1522 1524 1526 1528 1530 1531 1533 1535 1536 1537 1539 1540 1541 1543 1544 1545 1546 1547 1548 1549 1550 1550 1551 1552 1552 1553 1554 1554 1555 1555 1556 1556 1557 1557 1558 1558 1558 1559
1506 1510 1513 1516 1519 1522 1524 1526 1528 1530 1532 1533 1535 1537 1538 1539 1541 1542 1544 1545 1546 1548 1549 1550 1551 1551 1552 1553 1553 1554 1555 1556 1556 1557 1557 1558 1559 1559 1560 1560 1560 1561 1561
1505 1509 1513 1516 1519 1522 1524 1526 1528 1530 1532 1534 1535 1537 1538 1540 1541 1543 1545 1546 1547 1549 1550 1551 1552 1553 1554 1554 1555 1556 1557 1557 1558 1559 1559 1560 1561 1561 1562 1562 1563 1563 1563
1506 1509 1512 1515 1519 1521 1524 1526 1528 1530 1532 1534 1536 1537 1539 1541 1542 1544 1545 1547 1548 1549 1551 1552 1553 1554 1555 1556 1557 1558 1558 1559 1560 1561 1561 1562 1562 1563 1564 1564 1565 1565 1565
1506 1509 1512 1515 1518 1521 1523 1526 1528 1530 1532 1534 1536 1538 1539 1541 1543 1544 1546 1547 1549 1550 1551 1553 1554 1555 1556 1557 1558 1559 1560 1561 1561 1562 1563 1563 1564 1565 1566 1566 1566 1567 1567
1506 1509 1512 1515 1518 1521 1523 1525 1528 1530 1532 1534 1536 1538 1540 1541 1543 1545 1546 1548 1549 1551 1552 1554 1555 1556 1557 1558 1559 1560 1561 1562 1563 1564 1565 1565 1566 1567 1567 1568 1568 1569 1569
1506 1509 1512 1515 1518 1520 1523 1525 1527 1529 1532 1534 1536 1538 1540 1541 1543 1545 1547 1548 1550 1551 1553 1554 1556 1557 1558 1559 1561 1562 1563 1564 1565 1565 1566 1567 1567 1568 1569 1569 1570 1570 1571
1506 1509 1512 1515 1518 1520 1522 1525 1527 1529 1531 1533 1535 1538 1540 1542 1543 1545 1547 1548 1550 1552 1553 1555 1556 1558 1559 1560 1562 1563 1564 1565 1566 1567 1567 1568 1569 1569 1570 1570 1571 1571 1572
1506 1509 1512 1514 1517 1520 1522 1524 1527 1529 1531 1533 1535 1537 1539 1541 1543 1545 1547 1549 1550 1552 1553 1555 1557 1558 1560 1561 1562 1564 1565 1566 1567 1568 1569 1569 1570 1571 1571 1572 1572 1573 1573
1506 1509 1511 1514 1516 1519 1521 1524 1526 1528 1530 1532 1534 1537 1539 1541 1543 1545 1547 1548 1550 1552 1553 1555 1557 1558 1560 1561 1563 1564 1566 1567 1568 1569 1569 1570 1571 1572 1572 1573 1573 1574 1574
1505 1507 1510 1512 1515 1518 1520 1523 1525 1527 1529 1532 1534 1536 1538 1540 1542 1544 1546 1548 1550 1552 1553 1555 1557 1558 1560 1562 1563 1565 1566 1567 1568 1569 1570 1571 1572 1573 1573 1574 1574 1574 1575
1502 1505 1508 1511 1514 1516 1519 1522 1524 1526 1528 1530 1533 1535 1537 1539 1542 1544 1546 1547 1549 1551 1553 1555 1557 1558 1560 1562 1563 1565 1566 1567 1568 1570 1571 1572 1572 1573 1574 1574 1575 1575 1575
1500 1503 1506 1509 1512 1515 1517 1520 1522 1525 1527 1529 1532 1534 1536 1538 1541 1543 1545 1547 1549 1551 1552 1554 1556 1558 1560 1562 1563 1565 1566 1567 1569 1570 1571 1572 1573 1573 1574 1574 1575 1575 1576
1498 1501 1504 1507 1510 1513 1516 1518 1521 1524 1526 1528 1530 1533 1535 1537 1539 1542 1544 1546 1548 1550 1552 1554 1556 1558 1560 1561 1563 1564 1566 1567 1569 1570 1571 1572 1573 1574 1574 1575 1575 1576 1576
1496 1499 1502 1505 1508 1511 1514 1517 1519 1522 1524 1527 1529 1532 1534 1536 1538 1540 1542 1545 1547 1549 1551 1553 1555 1557 1559 1561 1562 1564 1566 1567 1568 1570 1571 1572 1573 1573 1574 1575 1575 1576 1576
1494 1497 1500 1503 1505 1509 1512 1515 1517 1520 1523 1525 1528 1530 1533 1535 1537 1539 1541 1544 1546 1548 1550 1552 1554 1556 1558 1560 1562 1563 1565 1566 1568 1569 1570 1571 1572 1573 1574 1574 1575 1575 1576
1491 1494 1497 1500 1503 1506 1509 1512 1515 1518 1521 1523 1526 1529 1531 1533 1536 1538 1540 1543 1545 1547 1549 1551 1553 1555 1557 1559 1561 1563 1564 1566 1567 1568 1569 1570 1571 1572 1573 1574 1574 1575 1575
1488 1491 1494 1498 1501 1504 1507 1510 1513 1516 1519 1521 1524 1527 1529 1532 1534 1537 1539 1541 1544 1546 1548 1550 1552 1554 1556 1558 1560 1562 1563 1565 1566 1567 1568 1569 1570 1571 1572 1573 1573 1574 1574
1485 1488 1491 1495 1498 1501 1504 1507 1511 1513 1516 1519 1522 1525 1527 1530 1533 1535 1537 1540 1542 1544 1546 1548 1550 1552 1554 1556 1559 1561 1562 1564 1565 1566 1567 1568 1569 1570 1571 1572 1572 1573 1573
1482 1485 1488 1492 1495 1498 1502 1505 1508 1511 1514 1517 1519 1522 1525 1528 1530 1533 1535 1537 1540 1542 1544 1546 1549 1551 1553 1555 1557 1559 1561 1563 1564 1565 1566 1567 1568 1568 1569 1570 1571 1571 1572
1478 1481 1485 1488 1491 1495 1498 1500 1504 1507 1511 1514 1517 1520 1523 1525 1528 1531 1533 1535 1537 1540 1542 1544 1547 1549 1551 1554 1556 1558 1560 1561 1562 1563 1564 1565 1566 1567 1568 1568 1569 1570 1570
1474 1477 1481 1484 1487 1491 1494 1498 1501 1505 1508 1511 1514 1517 1520 1523 1525 1528 1530 1532 1535 1537 1540 1542 1544 1546 1549 1551 1553 1555 1557 1560 1560 1561 1562 1563 1564 1565 1565 1566 1567 1568 1568
1470 1474 1477 1481 1484 1488 1491 1495 1499 1502 1505 1508 1511 1514 1517 1520 1522 1525 1527 1530 1532 1534 1537 1539 1541 1544 1546 1549 1551 1553 1555 1555 1557 1558 1559 1560 1561 1562 1563 1564 1564 1565 1566
1467 1470 1474 1477 1481 1484 1488 1491 1494 1497 1500 1504 1508 1511 1514 1516 1519 1521 1524 1526 1529 1531 1534 1536 1539 1541 1543 1545 1548 1550 1552 1553 1555 1555 1557 1558 1559 1560 1561 1561 1562 1563 1563
1465 1467 1471 1474 1477 1481 1485 1488 1491 1494 1498 1501 1505 1508 1511 1513 1515 1518 1520 1523 1525 1528 1530 1533 1535 1538 1540 1542 1544 1546 1549 1550 1552 1552 1553 1554 1555 1557 1558 1559 1559 1560 1560
1463 1465 1467 1471 1474 1478 1481 1485 1488 1491 1494 1498 1501 1504 1507 1509 1512 1514 1517 1519 1521 1524 1526 1529 1532 1534 1537 1539 1541 1543 1545 1547 1548 1549 1550 1550 1552 1553 1554 1555 1556 1557 1557